Tracking 19969 objects as of 13-Nov-2019
Live streaming from Space Station
objects crossing your sky now
Track the group of recently launched Starlink satellites

COSMOS 1275 DEB

Track COSMOS 1275 DEB now!
10-day predictions


NORAD ID: 13800
Int'l Code: 1981-053GX
Perigee: 908.6 km
Apogee: 1,168.9 km
Inclination: 83.2 °
Period: 105.8 minutes
Semi major axis: 7409 km
RCS: 0.062 m2 (small)
Launch date: June 4, 1981
Source: Commonwealth of Independent States (former USSR) (CIS)
Launch site: PLESETSK MISSILE AND SPACE COMPLEX (PKMTR)

Note: This is SATELLITE DEBRIS
aabbcc
Your satellite tracking list
Your tracking list is empty




NASA's NSSDC Master Catalog

Two Line Element Set (TLE):
1 13800U 81053GU  19316.69885758 +.00001295 +00000-0 +15199-2 0  9999
2 13800 083.2330 044.4200 0175663 158.8561 353.6996 13.61133828825865
Source of the keplerian elements: AFSPC